Location: Bothwell
(42.3833°S, 147.0000°E)
Time: 02:42:13
(UTC+11:00)

EO-79 - Visible Passes

Search period start: 12 December 2023 00:00
Search period end: 22 December 2023 00:00
Orbit: 569 x 587 km, 98.0° (Epoch: 10 December)

Date Brightness Start Highest point End Pass type
(mag) Time Alt. Az. Time Alt. Az. Time Alt. Az.
12 Dec ? 01:44:15 10° E 01:46:13 13° ESE 01:48:10 10° SE visible
12 Dec ? 03:19:23 36° NNW 03:20:56 62° W 03:25:08 10° SSW visible
13 Dec ? 01:48:18 10° E 01:50:35 14° ESE 01:52:52 10° SSE visible
13 Dec ? 03:23:50 34° NNW 03:25:21 55° W 03:29:32 10° SSW visible
14 Dec ? 01:52:24 10° E 01:54:56 16° ESE 01:57:31 10° SSE visible
14 Dec ? 03:28:18 33° NNW 03:29:47 49° W 03:33:54 10° SSW visible
15 Dec ? 01:56:31 10° ENE 01:59:18 17° ESE 02:02:06 10° SSE visible
15 Dec ? 03:32:44 31° NNW 03:34:12 43° W 03:38:16 10° SSW visible
16 Dec ? 02:00:53 11° ENE 02:03:40 19° ESE 02:06:40 10° SSE visible
16 Dec ? 03:37:11 29° NW 03:38:37 39° W 03:42:36 10° SSW visible
17 Dec ? 02:05:19 12° ENE 02:08:01 21° ESE 02:11:12 10° SSE visible
17 Dec ? 03:41:37 27° NW 03:43:01 35° W 03:46:55 10° SSW visible
18 Dec ? 02:09:45 13° ENE 02:12:22 23° ESE 02:15:42 10° SSE visible
18 Dec ? 03:46:02 25° NW 03:47:26 31° W 03:51:14 10° SSW visible
19 Dec ? 02:14:11 15° ENE 02:16:42 25° ESE 02:20:11 10° SSE visible
19 Dec ? 03:50:28 23° NW 03:51:50 28° W 03:55:32 10° SW visible
20 Dec ? 02:18:37 16° ENE 02:21:03 28° ESE 02:24:39 10° S visible
20 Dec ? 03:54:54 22° NW 03:56:14 26° W 03:59:47 10° SW visible
21 Dec ? 02:23:01 18° ENE 02:25:23 30° ESE 02:29:06 10° S visible
21 Dec ? 03:59:20 20° WNW 04:00:38 23° W 04:04:02 10° SW visible
